Location: Kalwaria Zebrzydowska
(49.8686°N, 19.6647°E)
Time: 13:00:40
(UTC+02:00)

ISS - Pass Details

Date: 26 January 2019
Orbit: 411 x 421 km, 51.6° (Epoch: 18 October)

Event Time Altitude Azimuth Distance (km) Brightness Sun altitude
Rises 19:17:33 0° 267° (W) 2,418 1.4 -27.5°
Reaches altitude 10° 19:19:41 10° 270° (W) 1,552 0.1 -27.9°
Enters shadow 19:21:09 23° 275° (W) 982 -1.2 -28.1°
